When you browse on this site, cookies collect data to enhance your experience and personalize the content and advertising you see.
Visit our Privacy Policy to learn more. By continuing to use the site, you agree to this use of cookies and data.
  • In Hungary
  • List of Countries
  • For 7 days
  • Water Temperature
  • Satellite Maps
  • Weather Map
  • News
  • Weather Widgets
  • user-avatar
    Login

    Hourly Weather Concord

    Today, 19 December, Wednesday

    Time Temperature Precipitation Wind Pressure Humidity
    00:00 -9°C° 0 mm 4 mps 754 mmHg 69%
    01:00 -9°C° 0 mm 4 mps 754 mmHg 68%
    02:00 -8°C° 0 mm 3 mps 754 mmHg 68%
    03:00 -8°C° 0 mm 3 mps 754 mmHg 67%
    04:00 -7°C° 0 mm 2 mps 754 mmHg 67%
    05:00 -7°C° 0 mm 2 mps 754 mmHg 67%
    06:00 -7°C° 0 mm 2 mps 754 mmHg 68%
    07:00 -7°C° 0 mm 2 mps 755 mmHg 69%
    08:00 -6°C° 0 mm 2 mps 755 mmHg 64%
    09:00 -5°C° 0 mm 2 mps 755 mmHg 60%
    10:00 -4°C° 0 mm 2 mps 755 mmHg 55%
    11:00 -2°C° 0 mm 2 mps 754 mmHg 53%
    12:00 +1°C° 0 mm 1 mps 754 mmHg 50%
    13:00 +3°C° 0 mm 1 mps 753 mmHg 47%
    14:00 +2°C° 0 mm 1 mps 753 mmHg 53%
    15:00 +1°C° 0 mm 1 mps 753 mmHg 58%
    16:00 0°C° 0 mm 1 mps 753 mmHg 64%
    17:00 0°C° 0 mm 1 mps 753 mmHg 66%
    18:00 -1°C° 0 mm 1 mps 753 mmHg 67%
    19:00 -1°C° 0 mm 1 mps 754 mmHg 69%
    20:00 -1°C° 0 mm 1 mps 754 mmHg 70%
    21:00 -1°C° 0 mm 1 mps 754 mmHg 71%
    22:00 -1°C° 0 mm 1 mps 754 mmHg 72%
    23:00 -1°C° 0 mm 1 mps 754 mmHg 72%

    Tomorrow, 20 December, Thursday

    Time Temperature Precipitation Wind Pressure Humidity
    00:00 -1°C° 0 mm 1 mps 754 mmHg 72%
    01:00 -2°C° 0 mm 1 mps 754 mmHg 72%
    02:00 -2°C° 0 mm 1 mps 754 mmHg 72%
    03:00 -2°C° 0 mm 1 mps 754 mmHg 71%
    04:00 -2°C° 0 mm 1 mps 754 mmHg 71%
    05:00 -2°C° 0 mm 1 mps 754 mmHg 72%
    06:00 -2°C° 0 mm 1 mps 754 mmHg 72%
    07:00 -3°C° 0 mm 0 mps 754 mmHg 72%
    08:00 -1°C° 0 mm 0 mps 754 mmHg 67%
    09:00 +1°C° 0 mm 0 mps 755 mmHg 62%
    10:00 +3°C° 0 mm 0 mps 755 mmHg 57%
    11:00 +5°C° 0 mm 1 mps 754 mmHg 56%
    12:00 +6°C° 0 mm 1 mps 754 mmHg 55%
    13:00 +7°C° 0 mm 1 mps 754 mmHg 54%
    14:00 +6°C° 0 mm 1 mps 754 mmHg 62%
    15:00 +3°C° 0 mm 0 mps 754 mmHg 70%
    16:00 +2°C° 0 mm 0 mps 754 mmHg 78%
    17:00 +1°C° 0 mm 0 mps 754 mmHg 81%
    18:00 +2°C° 0 mm 1 mps 754 mmHg 84%
    19:00 +1°C° 0 mm 1 mps 754 mmHg 87%
    20:00 +2°C° 0 mm 1 mps 753 mmHg 88%
    21:00 +2°C° 0 mm 1 mps 753 mmHg 89%
    22:00 +2°C° 0 mm 1 mps 753 mmHg 90%
    23:00 +2°C° 0.1 mm 1 mps 753 mmHg 91%

    Day after tomorrow, 21 December, Friday

    Time Temperature Precipitation Wind Pressure Humidity
    00:00 +2°C° 0.1 mm 1 mps 752 mmHg 92%
    01:00 +2°C° 0.1 mm 1 mps 752 mmHg 94%
    02:00 +3°C° 0.9 mm 1 mps 751 mmHg 94%
    03:00 +2°C° 0.9 mm 2 mps 750 mmHg 95%
    04:00 +3°C° 0.9 mm 2 mps 749 mmHg 96%
    05:00 +3°C° 2.8 mm 3 mps 748 mmHg 96%
    06:00 +4°C° 2.8 mm 4 mps 747 mmHg 97%
    07:00 +5°C° 2.8 mm 5 mps 746 mmHg 97%
    08:00 +7°C° 5.1 mm 5 mps 745 mmHg 96%
    09:00 +8°C° 5.1 mm 6 mps 743 mmHg 96%
    10:00 +9°C° 5.1 mm 6 mps 742 mmHg 96%
    11:00 +10°C° 3.6 mm 5 mps 741 mmHg 96%
    12:00 +12°C° 3.6 mm 5 mps 740 mmHg 96%
    13:00 +14°C° 3.6 mm 4 mps 739 mmHg 96%
    14:00 +14°C° 4.9 mm 4 mps 739 mmHg 95%
    15:00 +14°C° 4.9 mm 5 mps 738 mmHg 95%
    16:00 +15°C° 4.9 mm 5 mps 737 mmHg 94%
    17:00 +15°C° 1.3 mm 5 mps 737 mmHg 95%
    18:00 +14°C° 1.3 mm 4 mps 736 mmHg 96%
    19:00 +14°C° 1.3 mm 4 mps 736 mmHg 96%
    20:00 +14°C° 0.7 mm 3 mps 735 mmHg 97%
    21:00 +13°C° 0.7 mm 3 mps 735 mmHg 97%
    22:00 +13°C° 0.7 mm 3 mps 734 mmHg 98%
    23:00 +12°C° 0.5 mm 3 mps 734 mmHg 97%

    22 December, Saturday

    Time Temperature Precipitation Wind Pressure Humidity
    00:00 +12°C° 0.5 mm 3 mps 734 mmHg 96%
    01:00 +11°C° 0.5 mm 3 mps 734 mmHg 95%
    02:00 +10°C° 0.2 mm 2 mps 734 mmHg 95%
    03:00 +9°C° 0.2 mm 2 mps 734 mmHg 95%
    04:00 +8°C° 0.2 mm 2 mps 734 mmHg 95%
    05:00 +7°C° 0.1 mm 2 mps 734 mmHg 93%
    06:00 +7°C° 0.1 mm 3 mps 734 mmHg 91%
    07:00 +5°C° 0.1 mm 3 mps 734 mmHg 89%
    08:00 +5°C° 0 mm 3 mps 734 mmHg 89%
    09:00 +7°C° 0 mm 3 mps 734 mmHg 88%
    10:00 +6°C° 0 mm 4 mps 733 mmHg 87%
    11:00 +6°C° 0.4 mm 4 mps 733 mmHg 85%
    12:00 +6°C° 0.4 mm 4 mps 733 mmHg 83%
    13:00 +6°C° 0.4 mm 5 mps 732 mmHg 81%
    14:00 +6°C° 0 mm 5 mps 733 mmHg 81%
    15:00 +5°C° 0 mm 5 mps 734 mmHg 80%
    16:00 +5°C° 0 mm 4 mps 734 mmHg 79%
    17:00 +5°C° 0 mm 5 mps 735 mmHg 79%
    18:00 +3°C° 0 mm 5 mps 736 mmHg 80%
    19:00 +3°C° 0 mm 5 mps 737 mmHg 80%
    20:00 +3°C° 0 mm 5 mps 737 mmHg 79%
    21:00 +2°C° 0 mm 5 mps 738 mmHg 78%
    22:00 +2°C° 0 mm 5 mps 738 mmHg 78%
    23:00 +2°C° 0 mm 5 mps 739 mmHg 78%

    23 December, Sunday

    Time Temperature Precipitation Wind Pressure Humidity
    00:00 +1°C° 0 mm 5 mps 739 mmHg 78%
    01:00 0°C° 0 mm 5 mps 740 mmHg 78%
    02:00 0°C° 0 mm 5 mps 740 mmHg 78%
    03:00 0°C° 0 mm 4 mps 741 mmHg 78%
    04:00 -1°C° 0 mm 4 mps 741 mmHg 78%
    05:00 -1°C° 0 mm 4 mps 742 mmHg 77%
    06:00 -1°C° 0 mm 4 mps 742 mmHg 77%
    07:00 -1°C° 0 mm 4 mps 743 mmHg 76%
    08:00 -1°C° 0 mm 5 mps 744 mmHg 72%
    09:00 0°C° 0 mm 5 mps 744 mmHg 69%
    10:00 +1°C° 0 mm 5 mps 745 mmHg 66%
    11:00 +1°C° 0 mm 5 mps 745 mmHg 64%
    12:00 +1°C° 0 mm 5 mps 745 mmHg 62%
    13:00 +1°C° 0 mm 6 mps 746 mmHg 61%
    14:00 +1°C° 0 mm 5 mps 746 mmHg 63%
    15:00 0°C° 0 mm 4 mps 747 mmHg 66%
    16:00 0°C° 0 mm 3 mps 748 mmHg 68%
    17:00 -1°C° 0 mm 3 mps 748 mmHg 70%
    18:00 -2°C° 0 mm 3 mps 749 mmHg 73%
    19:00 -4°C° 0 mm 3 mps 749 mmHg 75%
    20:00 -4°C° 0 mm 3 mps 750 mmHg 74%
    21:00 -4°C° 0 mm 3 mps 750 mmHg 73%
    22:00 -4°C° 0 mm 3 mps 750 mmHg 73%
    23:00 -5°C° 0 mm 3 mps 750 mmHg 72%

    24 December, Monday

    Time Temperature Precipitation Wind Pressure Humidity
    00:00 -5°C° 0 mm 3 mps 750 mmHg 71%
    01:00 -5°C° 0 mm 3 mps 750 mmHg 70%
    02:00 -5°C° 0 mm 3 mps 750 mmHg 68%
    03:00 -5°C° 0 mm 3 mps 750 mmHg 66%
    04:00 -5°C° 0 mm 3 mps 750 mmHg 65%
    05:00 -4°C° 0 mm 3 mps 750 mmHg 63%
    06:00 -4°C° 0 mm 3 mps 750 mmHg 61%
    07:00 -4°C° 0 mm 3 mps 750 mmHg 60%
    08:00 -2°C° 0 mm 3 mps 750 mmHg 57%
    09:00 -3°C° 0 mm 4 mps 750 mmHg 54%
    10:00 -2°C° 0 mm 4 mps 750 mmHg 51%
    11:00 -1°C° 0 mm 5 mps 750 mmHg 49%
    12:00 -1°C° 0 mm 5 mps 750 mmHg 47%
    13:00 0°C° 0 mm 5 mps 749 mmHg 45%
    14:00 -1°C° 0 mm 5 mps 750 mmHg 49%
    15:00 -1°C° 0 mm 4 mps 750 mmHg 52%
    16:00 -1°C° 0 mm 3 mps 750 mmHg 56%
    17:00 -1°C° 0 mm 3 mps 751 mmHg 58%
    18:00 -2°C° 0 mm 3 mps 751 mmHg 61%
    19:00 -4°C° 0 mm 4 mps 752 mmHg 63%
    20:00 -4°C° 0 mm 4 mps 752 mmHg 60%
    21:00 -5°C° 0 mm 4 mps 753 mmHg 57%
    22:00 -5°C° 0 mm 4 mps 753 mmHg 54%
    23:00 -7°C° 0 mm 4 mps 753 mmHg 54%
    Show more